Tracking 19625 objects as of 26-May-2019
HD Live streaming from Space Station
objects crossing your sky now
Watch Starlink satellites crossing your sky!

OSCAR 6

Track OSCAR 6 now!
10-day predictions
OSCAR 6 is classified as:


NORAD ID: 6236
Int'l Code: 1972-082B
Perigee: 1,454.9 km
Apogee: 1,462.0 km
Inclination: 101.8 °
Period: 114.9 minutes
Semi major axis: 7829 km
RCS: 0.279 m2 (medium)
Launch date: October 15, 1972
Source: United States (US)
Launch site: AIR FORCE WESTERN TEST RANGE (AFWTR)

Uplink (MHz): 145.900-146.000
Downlink (MHz): 29.450- 29.550
Beacon (MHz): 435.100
Mode: SSB CW
Call sign:
Status: Inactive

aabbcc
Your satellite tracking list
Your tracking list is empty




NASA's NSSDC Master Catalog

Two Line Element Set (TLE):
1  6236U 72082B   19145.89896068 -.00000020 +00000-0 +16013-3 0  9997
2  6236 101.8219 114.3763 0004549 040.1315 015.8325 12.53149697131873
Source of the keplerian elements: AFSPC